Flag for Germany Weather past 2 weeks in Aalen, Baden-Württemberg, Germany

Now
62 °F

Overcast.


Feels Like: 62 °F
Forecast: 54 / 76 °F
Wind: 2 mph from Northwest

Location: Stoetten

Current Time: Sep 18, 2014 at 10:13:20 PM

Latest Report: Sep 18, 2014 at 9:00 PM


Visibility: 11 mi

Pressure: 29.91 "Hg

Humidity: 89%

Dew point: 58 °F

Location of AalenLocation

Historic Weather in Aalen — Graph

°F

Aalen temperature yesterday

Maximum temperature yesterday: 65 °F (at 5:00 PM)
Minimum temperature yesterday: 52 °F (at 8:00 AM)
Average temperature yesterday: 58 °F

Past Weeks' High & Low Weather Summary

 TemperatureHumidityPressure
High71 °F (Sep 7, 3:00 PM)100% (Sep 11, 9:00 AM)30.16 "Hg (Sep 11, 9:00 AM)
Low47 °F (Sep 11, 7:00 AM)51% (Sep 7, 3:00 PM)29.84 "Hg (Sep 18, 4:00 PM)
Average58 °F88%29.99 "Hg
* Reported Sep 3 9:00 PM — Sep 18 9:00 PM, Aalen, Weather by CustomWeather, © 2014

Note: Actual official high and low records may vary slightly from our data, if they occured in-between our weather recording intervals... More about our weather records

Advertising

Aalen weather history for previous 24 hours

 ConditionsComfort  
Time TempWeatherWind HumidityBarometerVisibility
9:00 PM
Sep 18
62 °FOvercast.2 mph89%29.91 "Hg11 mi
8:00 PM63 °FOvercast.1 mph91%29.90 "Hg11 mi
7:00 PM64 °FRain. Overcast.2 mph93%29.90 "Hg9 mi
6:00 PM66 °FThundershowers. Overcast.3 mph81%29.88 "Hg11 mi
5:00 PM67 °FThunderstorms. Overcast.1 mph80%29.86 "Hg11 mi
4:00 PM69 °FOvercast.2 mph73%29.84 "Hg11 mi
3:00 PM68 °FOvercast.2 mph73%29.84 "Hg11 mi
2:00 PM67 °FOvercast.2 mph75%29.85 "Hg11 mi
1:00 PM66 °FOvercast.2 mph77%29.86 "Hg10 mi
12:00 PM65 °FPartly sunny.2 mph81%29.87 "Hg10 mi
11:00 AM60 °FPartly sunny.3 mph88%29.89 "Hg10 mi
10:00 AM61 °FScattered clouds.3 mph85%29.88 "Hg11 mi
9:00 AM56 °FScattered clouds.3 mph91%29.90 "Hg11 mi
8:00 AM55 °FOvercast.3 mph92%29.91 "Hg10 mi
7:00 AM55 °FOvercast.3 mph91%29.89 "Hg10 mi
6:00 AM55 °FOvercast.3 mph93%29.89 "Hg11 mi
5:00 AM56 °FFog.5 mph94%29.88 "Hg3 mi
4:00 AM58 °FOvercast.3 mph89%29.88 "Hg5 mi
3:00 AM59 °FOvercast.3 mph86%29.88 "Hg6 mi
2:00 AM59 °FPassing clouds.5 mph88%29.88 "Hg6 mi
1:00 AM60 °FFog.5 mph91%29.89 "Hg4 mi
12:00 AM60 °FFog.5 mph91%29.89 "Hg4 mi
11:00 PM
Sep 17
60 °FFog.5 mph92%29.89 "Hg3 mi
10:00 PM60 °FFog.5 mph92%29.90 "Hg3 mi
Weather by CustomWeather, © 2014

See weather overviewHow to use our weather pages